Tracking 20621 objects as of 30-Mar-2020
HD Live streaming from Space Station
objects crossing your sky now

PEGASUS DEB

Track PEGASUS DEB now!
10-day predictions


NORAD ID: 39315
Int'l Code: 1994-029AFA
Perigee: 605.3 km
Apogee: 1,245.8 km
Inclination: 81.5 °
Period: 103.4 minutes
Semi major axis: 7296 km
RCS: 0.0038 m2 (small)
Launch date: May 19, 1994
Source: United States (US)
Launch site: AIR FORCE WESTERN TEST RANGE (AFWTR)

Note: This is SATELLITE DEBRIS
aabbcc
Your satellite tracking list
Your tracking list is empty




NASA's NSSDC Master Catalog

Two Line Element Set (TLE):
1 39315U 94029AFA 20090.13533764 +.00000420 +00000-0 +14213-3 0  9998
2 39315 081.4958 236.1855 0438881 265.6315 089.4598 13.92923867345317
Source of the keplerian elements: AFSPC